Location: Oshawa
(43.9000°N, 78.8670°W)
Time: 23:18:51
(UTC-05:00)

Explorer 7 - Visible Passes

Search period start: 28 January 2015 00:00
Search period end: 07 February 2015 00:00
Orbit: 490 x 699 km, 50.3° (Epoch: 27 January)

Date Brightness Start Highest point End Pass type
(mag) Time Alt. Az. Time Alt. Az. Time Alt. Az.
28 Jan 8.0 18:07:43 10° WNW 18:12:05 38° N 18:16:05 13° ENE visible
28 Jan 8.1 19:48:58 10° WNW 19:52:39 42° NNW 19:52:39 42° NNW visible
29 Jan 8.0 18:16:47 10° WNW 18:21:09 38° N 18:24:41 16° ENE visible
29 Jan 8.1 19:57:49 10° WNW 20:01:15 44° NW 20:01:15 44° NW visible
30 Jan 7.9 18:25:45 10° WNW 18:30:11 40° N 18:33:20 19° ENE visible
30 Jan 8.2 20:06:38 10° WNW 20:09:54 43° WNW 20:09:54 43° WNW visible
31 Jan 7.6 18:34:38 10° WNW 18:39:11 47° NNE 18:42:01 22° E visible
31 Jan 8.5 20:15:29 10° WNW 20:18:37 39° W 20:18:37 39° W visible
01 Feb 7.3 18:43:27 10° WNW 18:48:07 59° NNE 18:50:49 25° E visible
01 Feb 8.8 20:24:24 10° WNW 20:27:25 33° W 20:27:25 33° W visible
02 Feb 7.1 18:52:15 10° WNW 18:57:00 79° NNE 18:59:44 26° ESE visible
02 Feb 9.2 20:33:30 10° WNW 20:36:21 24° WSW 20:36:21 24° WSW visible
03 Feb 7.3 19:01:04 10° WNW 19:05:47 73° SSW 19:08:48 23° SE visible
03 Feb 9.7 20:43:00 10° W 20:45:25 17° WSW 20:45:25 17° WSW visible
04 Feb 8.1 19:09:56 10° WNW 19:14:30 48° SW 19:18:04 17° SSE visible
05 Feb 8.9 19:18:57 10° WNW 19:23:08 30° SW 19:27:24 10° SSE visible
06 Feb 9.7 19:28:18 10° W 19:31:41 19° SW 19:35:04 10° S visible
